Weather History for Apalachicola, FL

Change the Weather History Date:

Wednesday, August 7, 2013

  Actual Average Record
Temperature  
Mean Temperature 84 °F -  
Max Temperature 90 °F 89 °F 95 °F (1956)
Min Temperature 77 °F 74 °F 70 °F (1946)
Cooling Degree Days 19    
Month to date cooling degree days 135  
Year to date cooling degree days 1514  
Since 1 June cooling degree days 1133  
Growing Degree Days 33 (Base 50)    
Moisture  
Dew Point 76 °F    
Average Humidity 81    
Maximum Humidity 91    
Minimum Humidity 70    
Precipitation  
Precipitation 0.34 in - - ()
Month to date precipitation 0.36  
Year to date precipitation 35.83  
Sea Level Pressure  
Sea Level Pressure 29.95 in    
Wind  
Wind Speed 4 mph (East)    
Max Wind Speed 18 mph    
Max Gust Speed 23 mph    
Visibility 9 miles    
Events Rain    
Averages and records for this station are not official NWS values.
T = Trace of Precipitation, MM = Missing Value Source: NWS Daily Summary

Daily Weather History Graph

Daily Weather History Graph

Search for Another Location

Airport:

Trip Planner

Search our weather history database for the weather conditions in past years. The results will help you decide how hot, cold, wet, or windy it might be!

Date:

Astronomy

Aug. 07, 2013 Rise Set
Actual Time 7:03 AM EDT 8:27 PM EDT
Civil Twilight 6:37 AM EDT 8:53 PM EDT
Nautical Twilight 6:07 AM EDT 9:23 PM EDT
Astronomical Twilight 5:35 AM EDT 9:55 PM EDT
Moon 7:43 AM EDT (8/7) 8:45 PM EDT (8/7)
Length of Visible Light 14h 15m
Length of Day
13h 24m
New Moon, 1% of the Moon is Illuminated
Aug 7
New Moon
Aug 14
First Quarter
Aug 20
Full
Aug 28
Last Quarter
Sep 5
New

Hourly Weather History & Observations

Time (EDT) Temp. Heat Index Dew Point Humidity Pressure Visibility Wind Dir Wind Speed Gust Speed Precip Events Conditions
12:53 AM 82.0 °F 90.2 °F 77.0 °F 85% 29.95 in 10.0 mi Calm Calm - N/A   Clear
1:53 AM 81.0 °F 87.3 °F 75.9 °F 85% 29.93 in 9.0 mi Calm Calm - N/A   Clear
2:53 AM 81.0 °F 87.3 °F 75.9 °F 85% 29.90 in 10.0 mi ESE 4.6 mph - N/A   Clear
3:53 AM 82.0 °F 90.2 °F 77.0 °F 85% 29.90 in 10.0 mi ESE 4.6 mph - N/A   Clear
4:51 AM 82.4 °F 90.9 °F 77.0 °F 84% 29.91 in 10.0 mi ESE 5.8 mph - N/A   Mostly Cloudy
4:53 AM 82.9 °F 91.8 °F 77.0 °F 82% 29.91 in 10.0 mi ESE 3.5 mph - N/A   Mostly Cloudy
5:03 AM 82.4 °F 90.9 °F 77.0 °F 84% 29.91 in 10.0 mi ESE 3.5 mph - N/A   Mostly Cloudy
5:12 AM 82.4 °F 90.9 °F 77.0 °F 84% 29.92 in 10.0 mi East 3.5 mph - N/A   Scattered Clouds
5:53 AM 81.0 °F 87.9 °F 77.0 °F 88% 29.93 in 10.0 mi ENE 3.5 mph - N/A   Mostly Cloudy
6:15 AM 80.6 °F 87.1 °F 77.0 °F 89% 29.93 in 10.0 mi NNE 4.6 mph - N/A   Scattered Clouds
6:53 AM 79.0 °F - 75.9 °F 90% 29.94 in 8.0 mi ENE 3.5 mph - N/A   Partly Cloudy
7:53 AM 80.1 °F 85.8 °F 77.0 °F 90% 29.95 in 7.0 mi NNE 4.6 mph - N/A   Clear
8:53 AM 84.9 °F 96.6 °F 78.1 °F 80% 29.97 in 10.0 mi NNE 3.5 mph - N/A   Partly Cloudy
9:53 AM 87.1 °F 101.5 °F 79.0 °F 77% 29.97 in 10.0 mi Calm Calm - N/A   Mostly Cloudy
10:10 AM 87.8 °F 102.5 °F 78.8 °F 75% 29.97 in 10.0 mi Variable 3.5 mph - N/A   Mostly Cloudy
10:39 AM 89.6 °F 104.7 °F 78.8 °F 70% 29.97 in 10.0 mi ESE 6.9 mph - N/A   Mostly Cloudy
10:53 AM 87.1 °F 98.8 °F 77.0 °F 72% 29.97 in 10.0 mi SE 9.2 mph - N/A   Mostly Cloudy
11:13 AM 82.4 °F 89.5 °F 75.2 °F 79% 29.99 in 10.0 mi North 15.0 mph 23.0 mph N/A   Overcast
11:25 AM 77.0 °F - 73.4 °F 89% 29.99 in 0.8 mi NNW 12.7 mph - 0.10 in Rain Heavy Rain
11:35 AM 77.0 °F - 73.4 °F 89% 29.98 in 2.0 mi NW 10.4 mph - 0.29 in Rain Heavy Rain
11:40 AM 77.0 °F - 73.4 °F 89% 29.98 in 3.0 mi WNW 6.9 mph - 0.32 in Rain Heavy Rain
11:53 AM 78.1 °F - 75.0 °F 90% 29.98 in 10.0 mi Calm Calm - 0.34 in Rain Light Rain
12:42 PM 82.4 °F 89.5 °F 75.2 °F 79% 30.01 in 10.0 mi ESE 10.4 mph 16.1 mph 0.00 in   Mostly Cloudy
12:53 PM 82.9 °F 90.2 °F 75.0 °F 77% 30.01 in 10.0 mi East 10.4 mph - 0.00 in   Mostly Cloudy
1:21 PM 82.4 °F 89.5 °F 75.2 °F 79% 30.01 in 10.0 mi SE 9.2 mph - N/A   Scattered Clouds
1:53 PM 82.0 °F 89.4 °F 75.9 °F 82% 29.99 in 10.0 mi SE 9.2 mph - N/A   Clear
2:53 PM 84.0 °F 91.9 °F 75.0 °F 74% 29.98 in 10.0 mi SE 5.8 mph - N/A   Clear
3:53 PM 84.9 °F 92.1 °F 73.9 °F 69% 29.96 in 10.0 mi SE 10.4 mph - N/A   Clear
4:53 PM 84.0 °F 91.2 °F 73.9 °F 72% 29.94 in 10.0 mi SE 5.8 mph - N/A   Clear
5:53 PM 84.9 °F 93.3 °F 75.0 °F 72% 29.94 in 10.0 mi SE 3.5 mph - N/A   Clear
6:53 PM 84.9 °F 91.4 °F 73.0 °F 67% 29.93 in 10.0 mi Calm Calm - N/A   Clear
7:53 PM 82.9 °F 89.4 °F 73.9 °F 74% 29.92 in 10.0 mi Calm Calm - N/A   Clear
8:53 PM 80.1 °F 85.1 °F 75.0 °F 85% 29.94 in 10.0 mi Calm Calm - N/A   Clear
9:53 PM 79.0 °F - 75.0 °F 88% 29.96 in 10.0 mi Calm Calm - N/A   Partly Cloudy
10:53 PM 79.0 °F - 75.0 °F 88% 29.99 in 10.0 mi Calm Calm - N/A   Clear
11:53 PM 79.0 °F - 75.0 °F 88% 29.97 in 10.0 mi ENE 3.5 mph - N/A   Clear